www.pogodaiklimat.ru

Погода и климат >> Архив погоды >> Мексика >> Акапулько


АРХИВ ПОГОДЫ в Акапулько

Время (UTC), дата Ветер
(напр.,м/с)
 
Видим.   Явления Облачность Т
(С)
Тd
(С)
f
(%)
Тe
(С)
Тes
(С)
Комфортность P
(гПа)
Po
(гПа)
Тmin
(С)
Tmax
(С)
R
(мм)
R24
(мм)
S
(см)
06 14.01 Ю 2 10 км 4/4 600 м
[Cu med, cong]
+27.2 +24.3 84 +38 +38 очень
душно
1014.9 1013.3 +23.2 +32.5
09 14.01 ЮВ 2 10 км 3/3 800 м
[Cu med, cong]
+26.0 +25.8 99 +38 +38 очень
душно
1013.7 1013.1
12 14.01 В 2 10 км 3/3 800 м
[Cu med, cong]
+23.8 +21.7 88 +30 +30 очень
душно
1013.9 1013.4 +22.8 +32.5
15 14.01 СВ 1 20 км 3/0
[Cs]
+25.8 +22.6 83 +34 +38 очень
душно
1015.8 1015.3
18 14.01 ЮЗ 2 20 км 3/1 900 м
[Cu hum Cs]
+32.0 +22.8 58 +42 +53 опасность
перегрева
1014.9 1014.6 +22.8 +32.7
21 14.01 ЮЗ 3 20 км 6/1 900 м
[Cu med, cong Ac trans Cs]
+31.2 +23.6 64 +42 +47 опасность
перегрева
1012.0 1011.6
00 15.01 З 2 20 км 3/1 600 м
[Cu med, cong Cs]
+29.7 +23.5 69 +40 +40 очень
душно
1011.8 1011.4 +22.8 +33.4
03 15.01 З 2 20 км 3/1 600 м
[Cu med, cong Cs]
+29.7 +23.5 69 +40 +40 очень
душно
1011.8 1011.4 +22.8 +33.4
06 15.01 С 2 10 км 3/0
[Ac und]
+25.7 +23.2 86 +34 +34 очень
душно
1015.5 1015.3 +33.4
09 15.01 С 2 10 км 3/0
[Ac und]
+25.7 +23.2 86 +34 +34 очень
душно
1015.5 1015.3 +33.4
12 15.01 С 1 10 км 3/1 900 м
[Cu med, cong Ac und]
+22.4 +20.9 91 +29 +29 очень
душно
1015.1 1014.7 +21.8 +33.4
15 15.01 СВ 1 20 км ясно +25.4 +20.2 73 +31 +36 очень
душно
1016.0 1015.5
18 15.01 СВ 1 20 км ясно +25.4 +20.2 73 +31 +47 очень
душно
1016.0 1015.5
21 15.01 ЮЗ 4 20 км 3/1 900 м
[Cu med, cong Cs]
+31.6 +21.3 54 +39 +44 очень
душно
1012.3 1011.7
00 16.01 ЮЗ 4 20 км 3/1 900 м
[Cu med, cong Cs]
+31.6 +21.3 54 +39 +39 очень
душно
1012.3 1011.7
03 16.01 СЗ 1 10 км 1/0
[Cs]
+24.9 +21.9 83 +32 +32 очень
душно
1013.9 1013.5
06 16.01 С 1 10 км 1/0
[Cs]
+23.6 +22.0 91 +30 +30 очень
душно
1015.6 1015.2 +21.8 +34.3
09 16.01 СЗ 1 10 км 1/0
[Cs]
+22.4 +21.5 95 +30 +30 очень
душно
1015.1 1014.7
12 16.01 З 1 10 км 1/0
[Cs]
+21.4 +20.5 95 +27 +27 душно 1014.6 1014.2 +20.9 +34.3
15 16.01 СЗ 1 20 км 5/1 900 м
[Cu hum Ac trans]
+24.0 +19.3 75 +29 +32 душно 1015.3 1014.9
18 16.01 СЗ 2 20 км 9/6 900 м
[Cu hum Ac trans]
+31.8 +20.8 52 +39 +42 очень
душно
1015.1 1014.6 +20.9 +33.0
21 16.01 ЮЗ 3 20 км 10/8 870 м
[Cu hum Ac trans]
+30.6 +22.5 62 +40 +41 очень
душно
1012.7 1012.2
00 17.01 З 2 20 км 10/8 600 м
[Cu hum Ac trans]
+28.8 +24.2 76 +40 +40 очень
душно
1012.5 1012.2 +20.9 +33.4
03 17.01 ЮЗ 2 10 км 4/4 660 м
[Cu med, cong]
+27.0 +23.9 83 +37 +37 очень
душно
1013.4 1012.9
06 17.01 Ю 2 10 км 4/4 600 м
[Cu med, cong]
+26.2 +23.1 83 +35 +35 очень
душно
1014.4 1013.9 +20.9 +33.4
09 17.01 ЮВ 2 10 км 4/4 720 м
[Cu med, cong]
+24.5 +23.2 92 +33 +33 очень
душно
1013.2 1012.9
12 17.01 В 2 10 км 4/4 1000 м
[Cu med, cong]
+22.8 +21.3 91 +30 +30 очень
душно
1015.1 1014.5 +19.2 +33.4
15 17.01 СВ 1 20 км 8/1 900 м
[Cu med, cong Cs]
+24.2 +20.7 81 +30 +34 очень
душно
1016.2 1015.8
18 17.01 ЮЗ 2 20 км 9/0
[Cs]
+29.6 +23.1 68 +40 +51 опасность
солнечного
удара
1015.3 1015.0 +19.2 +30.2
21 17.01 З 4 20 км 8/1 900 м
[Cu med, cong Ac und Cs]
+30.9 +23.8 66 +42 +46 опасность
перегрева
1013.2 1012.7
00 18.01 З 2 20 км 9/4 600 м
[Sc Cs]
+28.6 +22.1 68 +37 +37 очень
душно
1013.0 1012.6 +19.2 +32.0
03 18.01 С 1 10 км 4/4 870 м
[Cu hum]
+26.4 +22.9 81 +35 +35 очень
душно
1015.1 1014.7
06 18.01 С 1 10 км 4/4 900 м
[Cu hum]
+24.6 +22.8 90 +33 +33 очень
душно
1015.8 1015.3 +19.2 +32.0
09 18.01 В 1 10 км 4/1 900 м
[Cu hum Ac trans]
+23.6 +22.7 95 +31 +31 очень
душно
1014.8 1014.3
12 18.01 СВ 1 10 км 3/1 900 м
[Cu hum Cs]
+22.8 +22.2 96 +31 +31 очень
душно
1014.1 1013.7 +22.4
15 18.01 С 1 20 км 3/1 900 м
[Cu med, cong Ac und]
+25.4 +22.6 85 +33 +37 очень
душно
1014.8 1014.4
18 18.01 ЮЗ 1 20 км 3/1 900 м
[Cu med, cong Cs]
+31.0 +23.6 65 +42 +56 опасность
перегрева
1014.6 1014.2 +22.4 +31.8
21 18.01 З 3 20 км 5/1 900 м
[Cu med, cong Ac und Cs]
+30.7 +24.0 68 +43 +48 опасность
перегрева
1011.3 1010.9
00 19.01 З 3 20 км 8/3 600 м
[Cu med, cong Ac und Cs]
+28.5 +24.1 77 +40 +40 очень
душно
1011.3 1010.9 +22.4 +32.2
03 19.01 З 1 10 км 5/1 900 м
[Cu hum Cs]
+26.4 +23.7 85 +36 +36 очень
душно
1012.7 1012.4
06 19.01 С 1 10 км 3/0
[Cs]
+24.4 +23.1 92 +32 +32 очень
душно
1013.9 1013.7 +22.4 +32.2
09 19.01 СВ 1 10 км 4/0
[Cs]
+23.0 +22.2 95 +31 +31 очень
душно
1013.2 1012.8
12 19.01 С 1 10 км 4/0
[Cs]
+22.0 +21.7 98 +29 +29 очень
душно
1012.5 1012.2 +21.4 +32.2

 

Местоположение метеостанции Акапулько (Мексика): широта 16.83 долгота -99.93 высота над уровнем моря 3 м.

В архиве по умолчанию представлена погода в Акапулько за последнюю неделю. Архивные данные за месяц целиком и за предыдущие месяцы, начиная с января 2011 года, Вы можете получить, выбрав интересующий диапазон дат из раскрывающегося списка и нажав кнопку "Ввод!".


*Определитесь, кто Вы:
робот инопланетянин человек

Внимание! Время в таблицах - всемирное. Для получения местного времени необходимо прибавить поправку, которая равна -6 ч.

Смотрите также архив погоды в соседних городах и на ближайших метеорологических станциях:

Погода в Чильпансинго (Мексика) (92 км)
Погода в Сакатепеке (Мексика) (223 км)
Погода в Куэрнаваке (Мексика) (240 км)
Погода в Уахуапан-де-Леоне (Мексика) (253 км)
Погода в Толуке (Мексика) (274 км)
Погода в Институте Географии (Мексика) (288 км)
Погода в Мехико (Мексика) (297 км)
Погода в Пуэбле (Мексика) (310 км)
Погода в Тлашкала аэропорту (Мексика) (329 км)
Погода в Тлашкале (Мексика) (329 км)

Пояснения к столбцам:

Ветер - указаны скорость ветра в м/с - средняя за 10 мин, порывы в срок и между сроками (в фигурных скобках) и направление, откуда дует ветер: С - северный, СВ - северо-восточный, В - восточный, ЮВ - юго-восточный, Ю - южный, ЮЗ - юго-западный, З - западный, СЗ - северо-западный.
Видимость - горизонтальная дальность видимости в метрах или километрах. При видимости от 1 до 10 км при отсутствии осадков обычно наблюдается дымка, при ухудшении видимости до 1 км и менее - туман. В сухую погоду видимость может ухудшаться дымом, пылью или мглою.
Явления - указаны атмосферные явления, наблюдавшиеся в срок или в последний час перед сроком; фигурными скобками обозначены явления, наблюдавшиеся между сроками (за 1-3 часа до срока); квадратными скобками обозначены град или гололедные отложения с указанием их диаметра в мм.
Облачность - указаны через наклонную черту общая и нижняя облачность в баллах и высота нижней границы облаков в метрах; квадратными скобками обозначены формы облаков: Ci - перистые, Cs - перисто-слоистые, Cc - перисто-кучевые, Ac - высококучевые, As - высокослоистые, Sc - слоисто-кучевые, Ns - слоисто-дождевые, Cu - кучевые, Cb - кучево-дождевые. Подробнее классификацию облаков см. в Атласе облаков (PDF).
T - Температура воздуха - температура, измеренная на высоте 2 м над землей.
Td - Температура точки росы - температура, при понижении до которой содержащийся в воздухе водяной пар достигнет насыщения.
f - Относительная влажность воздуха - влажноcть воздуха, измеренная на высоте 2 м над землей.
Te - Эффективная температура - температура, которую ощущает одетый по сезону человек в тени. Характеристика душности погоды. При расчете учитывается влияние влажности воздуха и скорости ветра на теплоощущения человека.
Tes - Эффективная температура на солнце - температура, которую ощущает человек, с поправкой на солнечный нагрев. Характеристика знойности погоды. Зависит от высоты солнца над горизонтом, облачности и скорости ветра. Ночью, в пасмурную погоду, а также при ветре 12 м/с и более поправка равна нулю.
P - Атмосферное давление - приведенное к уровню моря атмосферное давление.
Po - Атмосферное давление - измеренное на уровне метеостанции атмосферное давление.
Tmin - Минимальная температура - минимум температуры воздуха на высоте 2 м над землей.
Tmax - Максимальная температура - максимум температуры воздуха на высоте 2 м над землей.
R - Количество осадков - Количество выпавших осадков за период времени, мм. При наведении курсора мыши на число - период времени, за который выпало указанное количество осадков.
R24 - Количество осадков - Количество выпавших осадков за 24 часа, мм.
S - Снежный покров - Высота снежного покрова, см. При наведении курсора мыши на число - состояние снежного покрова и степень покрытия местности в баллах.